TimeEST,TemperatureF,Dew PointF,Humidity,Sea Level PressureIn,VisibilityMPH,Wind Direction,Wind SpeedMPH,Gust SpeedMPH,PrecipitationIn,Events,Conditions,WindDirDegrees,DateUTC
12:53 AM,28.0,19.9,72,30.22,7.0,SE,6.9,-,N/A,,Overcast,140,2013-02-07 05:53:00
1:53 AM,28.0,21.0,75,30.18,7.0,SE,8.1,-,N/A,,Scattered Clouds,130,2013-02-07 06:53:00
2:53 AM,27.0,19.9,75,30.18,6.0,ESE,6.9,-,N/A,,Haze,110,2013-02-07 07:53:00
3:53 AM,28.0,21.0,75,30.17,6.0,SE,11.5,-,N/A,,Haze,140,2013-02-07 08:53:00
4:53 AM,27.0,21.0,78,30.18,5.0,ESE,5.8,-,N/A,,Haze,120,2013-02-07 09:53:00
5:53 AM,27.0,21.0,78,30.17,5.0,SE,8.1,-,N/A,,Haze,130,2013-02-07 10:53:00
6:53 AM,28.0,21.0,75,30.17,5.0,ESE,8.1,-,N/A,,Haze,120,2013-02-07 11:53:00
7:53 AM,28.0,21.0,75,30.16,5.0,SE,8.1,-,N/A,,Haze,130,2013-02-07 12:53:00
8:53 AM,28.0,21.9,78,30.15,4.0,ESE,6.9,-,N/A,,Haze,120,2013-02-07 13:53:00
9:53 AM,30.0,23.0,75,30.13,4.0,SE,12.7,-,N/A,,Haze,130,2013-02-07 14:53:00
10:53 AM,33.1,23.0,66,30.11,5.0,SE,9.2,-,N/A,,Haze,130,2013-02-07 15:53:00
11:53 AM,35.1,24.1,64,30.08,5.0,SE,9.2,-,N/A,,Haze,130,2013-02-07 16:53:00
12:53 PM,37.0,26.1,65,30.04,5.0,ESE,11.5,-,N/A,,Haze,120,2013-02-07 17:53:00
1:53 PM,37.9,26.1,62,29.99,5.0,SE,11.5,-,N/A,,Haze,130,2013-02-07 18:53:00
2:53 PM,39.9,27.0,60,29.96,6.0,SE,11.5,-,N/A,,Haze,130,2013-02-07 19:53:00
3:53 PM,41.0,27.0,57,29.93,6.0,SE,11.5,-,N/A,,Haze,130,2013-02-07 20:53:00
4:53 PM,39.0,28.0,65,29.91,5.0,ESE,6.9,-,N/A,,Haze,120,2013-02-07 21:53:00
5:53 PM,37.0,28.0,70,29.89,4.0,East,8.1,-,N/A,,Haze,100,2013-02-07 22:53:00
6:53 PM,37.0,28.0,70,29.86,5.0,ESE,10.4,-,N/A,,Haze,110,2013-02-07 23:53:00
7:53 PM,37.0,28.9,73,29.85,5.0,East,6.9,-,0.00,Rain,Light Rain,100,2013-02-08 00:53:00
8:53 PM,35.1,30.0,82,29.85,3.0,NE,5.8,-,0.02,Rain,Light Rain,50,2013-02-08 01:53:00
9:25 PM,33.8,30.2,87,29.82,2.5,Variable,4.6,-,0.02,Rain,Light Rain,0,2013-02-08 02:25:00
9:53 PM,34.0,30.9,89,29.84,2.5,NE,4.6,-,0.05,Rain,Light Rain,50,2013-02-08 02:53:00
10:11 PM,35.6,30.2,81,29.80,3.0,East,8.1,-,0.00,Rain,Light Rain,80,2013-02-08 03:11:00
10:46 PM,35.6,30.2,81,29.79,3.0,ENE,6.9,-,0.00,Rain,Light Rain,70,2013-02-08 03:46:00
10:53 PM,35.1,30.9,85,29.81,3.0,ENE,4.6,-,0.00,Rain,Light Rain,70,2013-02-08 03:53:00
11:11 PM,35.6,30.2,81,29.79,2.5,NE,4.6,-,0.02,Rain,Light Rain,40,2013-02-08 04:11:00
11:34 PM,33.8,30.2,87,29.78,2.0,ENE,8.1,-,0.02,Rain,Light Rain,70,2013-02-08 04:34:00
11:53 PM,34.0,30.9,89,29.81,2.5,North,3.5,-,0.02,Rain,Light Rain,10,2013-02-08 04:53:00